EA1QW Weather Reports


Display with metric or nautical units.
time (UTC)temp
F
wind
direction
speed
MPH
gust
MPH
rain 1hr
in
rain 24hr
in
rain mn
in
humidity
%
barometer
mb
20260902120525 74 61 7.0 12.0 0.00 0.00 0.00 73 1022.5
20260902120013 74 77 6.0 15.0 0.00 0.00 0.00 74 1022.4
20260902115522 74 45 6.0 14.0 0.00 0.00 0.00 74 1022.5
20260902115010 74 62 5.0 11.0 0.00 0.00 0.00 76 1022.4
20260902114518 74 40 5.0 11.0 0.00 0.00 0.00 78 1022.5
20260902114027 73 61 6.0 16.0 0.00 0.00 0.00 79 1022.4
20260902113535 73 62 10.0 16.0 0.00 0.00 0.00 79 1022.4
20260902113023 73 55 6.0 15.0 0.00 0.00 0.00 79 1022.5
20260902112510 73 34 8.0 14.0 0.00 0.00 0.00 79 1022.5
20260902112015 73 22 7.0 16.0 0.00 0.00 0.00 80 1022.5
20260902111524 73 46 9.0 16.0 0.00 0.00 0.00 79 1022.5
20260902111031 73 17 7.0 14.0 0.00 0.00 0.00 80 1022.5
20260902110518 73 57 10.0 14.0 0.00 0.00 0.00 79 1022.6
20260902110026 73 16 6.0 12.0 0.00 0.00 0.00 79 1022.6
20260902105515 73 43 6.0 14.0 0.00 0.00 0.00 79 1022.4
20260902105043 73 30 9.0 14.0 0.00 0.00 0.00 79 1022.5
20260902104511 73 345 9.0 14.0 0.00 0.00 0.00 79 1022.4
20260902104019 73 5 9.0 15.0 0.00 0.00 0.00 78 1022.5
20260902103510 73 46 7.0 16.0 0.00 0.00 0.00 78 1022.5
20260902103018 73 62 11.0 16.0 0.00 0.00 0.00 77 1022.5
20260902102543 72 47 8.0 15.0 0.00 0.00 0.00 76 1022.5
20260902102014 72 23 7.0 14.0 0.00 0.00 0.00 79 1022.4
20260902101539 72 9 9.0 14.0 0.00 0.00 0.00 78 1022.4
20260902101009 72 24 8.0 14.0 0.00 0.00 0.00 77 1022.3
20260902100533 73 15 7.0 11.0 0.00 0.00 0.00 78 1022.4
20260902100019 73 355 7.0 11.0 0.00 0.00 0.00 78 1022.3
20260902095512 73 49 6.0 10.0 0.00 0.00 0.00 77 1022.3
20260902095019 73 46 6.0 10.0 0.00 0.00 0.00 76 1022.3
20260902094528 73 32 5.0 9.0 0.00 0.00 0.00 77 1022.3
20260902094014 73 22 3.0 8.0 0.00 0.00 0.00 77 1022.1
20260902093518 73 72 4.0 8.0 0.00 0.00 0.00 77 1022.1
20260902093009 73 20 5.0 9.0 0.00 0.00 0.00 76 1022.0
20260902092021 73 288 3.0 5.0 0.00 0.00 0.00 78 1021.9
20260902091530 73 286 0.0 3.0 0.00 0.00 0.00 78 1021.9
20260902091015 73 286 1.0 4.0 0.00 0.00 0.00 80 1021.9
20260902090524 73 276 0.0 5.0 0.00 0.00 0.00 81 1021.8
20260902090031 72 299 1.0 4.0 0.00 0.00 0.00 83 1021.8
20260902085518 72 49 0.0 4.0 0.00 0.00 0.00 85 1021.8
20260902085011 71 51 2.0 4.0 0.00 0.00 0.00 86 1021.7
20260902084520 70 59 0.0 3.0 0.00 0.00 0.00 89 1021.7
20260902084023 70 59 0.0 4.0 0.00 0.00 0.00 91 1021.7
20260902083512 69 59 1.0 4.0 0.00 0.00 0.00 92 1021.7
20260902083037 69 59 0.0 0.0 0.00 0.00 0.00 95 1021.6
20260902082508 68 59 0.0 0.0 0.00 0.00 0.00 96 1021.5
20260902082011 68 59 0.0 0.0 0.00 0.00 0.00 97 1021.5
20260902081518 67 59 0.0 0.0 0.00 0.00 0.00 98 1021.3
20260902081010 67 59 0.0 0.0 0.00 0.00 0.00 100 1021.3
20260902072040 64 59 0.0 0.0 0.00 0.00 0.00 100 1021.2
20260902070533 63 59 0.0 0.0 0.00 0.00 0.00 100 1021.0
20260902070041 62 59 0.0 0.0 0.00 0.00 0.00 100 1020.9
20260902065510 62 59 0.0 0.0 0.00 0.00 0.00 100 1020.9
20260902065021 62 59 0.0 0.0 0.00 0.00 0.00 100 1020.9
20260902064515 61 59 0.0 0.0 0.00 0.00 0.00 100 1020.9
20260902064026 61 59 0.0 0.0 0.00 0.00 0.00 99 1021.0
20260902063516 61 59 0.0 0.0 0.00 0.00 0.00 99 1020.9
20260902063026 61 59 0.0 0.0 0.00 0.00 0.00 99 1020.9
20260902062519 61 59 0.0 0.0 0.00 0.00 0.00 99 1020.9
20260902062011 61 59 0.0 0.0 0.00 0.00 0.00 99 1021.0
20260902061522 61 59 0.0 0.0 0.00 0.00 0.00 99 1020.8
20260902061016 61 59 0.0 0.0 0.00 0.00 0.00 99 1020.8
20260902060529 61 59 0.0 0.0 0.00 0.00 0.00 99 1020.8
20260902060021 61 59 0.0 0.0 0.00 0.00 0.00 99 1020.8
20260902055530 61 59 0.0 0.0 0.00 0.00 0.00 99 1020.8
20260902055038 61 59 0.0 0.0 0.00 0.00 0.00 99 1020.9
20260902054526 61 59 0.0 0.0 0.00 0.00 0.00 99 1020.8
20260902054016 61 59 0.0 0.0 0.00 0.00 0.00 99 1020.8
20260902053526 61 59 0.0 0.0 0.00 0.00 0.00 99 1020.7
20260902053014 61 59 0.0 0.0 0.00 0.00 0.00 99 1020.6
20260902052523 61 59 0.0 0.0 0.00 0.00 0.00 99 1020.7
20260902052032 61 59 0.0 0.0 0.00 0.00 0.00 99 1020.7
20260902051521 61 59 0.0 0.0 0.00 0.00 0.00 99 1020.7
20260902051012 61 59 0.0 0.0 0.00 0.00 0.00 99 1020.7
20260902050541 61 59 0.0 0.0 0.00 0.00 0.00 99 1020.6
20260902050029 61 59 0.0 0.0 0.00 0.00 0.00 99 1020.6
20260902045516 61 59 0.0 0.0 0.00 0.00 0.00 98 1020.6
20260902045027 61 59 0.0 0.0 0.00 0.00 0.00 98 1020.6
20260902044516 61 59 0.0 0.0 0.00 0.00 0.00 98 1020.7
20260902044024 61 59 0.0 0.0 0.00 0.00 0.00 98 1020.7
20260902043514 61 59 0.0 0.0 0.00 0.00 0.00 98 1020.7
20260902043022 61 59 0.0 0.0 0.00 0.00 0.00 98 1020.7
20260902042512 61 59 0.0 0.0 0.00 0.00 0.00 98 1020.7
20260902042022 61 59 0.0 0.0 0.00 0.00 0.00 98 1020.7
20260902041512 61 59 0.0 0.0 0.00 0.00 0.00 98 1020.8
20260902041023 61 59 0.0 0.0 0.00 0.00 0.00 98 1020.8
20260902040533 61 59 0.0 0.0 0.00 0.00 0.00 98 1020.8
20260902040021 61 59 0.0 0.0 0.00 0.00 0.00 98 1020.7
20260902035514 61 59 0.0 0.0 0.00 0.00 0.00 97 1020.8
20260902035026 61 59 0.0 0.0 0.00 0.00 0.00 97 1020.6
20260902034517 61 59 0.0 0.0 0.00 0.00 0.00 97 1020.7
20260902034010 61 59 0.0 0.0 0.00 0.00 0.00 97 1020.7
20260902033523 61 59 0.0 0.0 0.00 0.00 0.00 97 1020.6
20260902033014 61 59 0.0 0.0 0.00 0.00 0.00 97 1020.7
20260902032526 61 59 0.0 0.0 0.00 0.00 0.00 97 1020.8
20260902032018 61 59 0.0 0.0 0.00 0.00 0.00 97 1020.8
20260902031528 61 59 0.0 0.0 0.00 0.00 0.00 97 1020.8
20260902031018 61 59 0.0 0.0 0.00 0.00 0.00 97 1020.8
20260902030513 61 59 0.0 0.0 0.00 0.00 0.00 97 1020.7
20260902030026 62 59 0.0 0.0 0.00 0.00 0.00 97 1020.7
20260902025536 62 59 0.0 0.0 0.00 0.00 0.00 97 1020.7
20260902025028 62 59 0.0 0.0 0.00 0.00 0.00 96 1020.6
20260902024519 62 59 0.0 0.0 0.00 0.00 0.00 96 1020.7
20260902024011 62 59 0.0 0.0 0.00 0.00 0.00 96 1020.7
20260902023523 62 59 0.0 0.0 0.00 0.00 0.00 96 1020.8
20260902023016 62 59 0.0 0.0 0.00 0.00 0.00 96 1020.7
20260902022527 62 59 0.0 0.0 0.00 0.00 0.00 96 1020.7
20260902022019 62 59 0.0 0.0 0.00 0.00 0.00 96 1020.6
20260902021549 62 59 0.0 0.0 0.00 0.00 0.00 96 1020.7
20260902021018 62 59 0.0 0.0 0.00 0.00 0.00 96 1020.6
20260902020510 62 59 0.0 0.0 0.00 0.00 0.00 96 1020.7
20260902020043 62 59 0.0 0.0 0.00 0.00 0.00 96 1020.7
20260902015533 62 59 0.0 0.0 0.00 0.00 0.00 96 1020.6
20260902015023 62 59 0.0 0.0 0.00 0.00 0.00 96 1020.6
20260902014514 62 59 0.0 0.0 0.00 0.00 0.00 96 1020.7
20260902014041 63 59 0.0 0.0 0.00 0.00 0.00 95 1020.6
20260902013511 63 59 0.0 0.0 0.00 0.00 0.00 95 1020.7
20260902013018 63 59 0.0 0.0 0.00 0.00 0.00 95 1020.8
20260902012550 63 59 0.0 0.0 0.00 0.00 0.00 95 1020.9
20260902012021 63 59 0.0 0.0 0.00 0.00 0.00 95 1020.9
20260902011530 63 59 0.0 0.0 0.00 0.00 0.00 95 1020.8
20260902011016 63 59 0.0 0.0 0.00 0.00 0.00 95 1020.8
20260902010526 63 59 0.0 0.0 0.00 0.00 0.00 95 1020.8
20260902010016 63 59 0.0 0.0 0.00 0.00 0.00 95 1020.8
20260902005527 63 59 0.0 0.0 0.00 0.00 0.00 95 1020.8
20260902005039 63 59 0.0 0.0 0.00 0.00 0.00 94 1020.8
20260902004528 63 59 0.0 0.0 0.00 0.00 0.00 94 1020.8
20260902004016 63 59 0.0 0.0 0.00 0.00 0.00 94 1020.8
20260902003529 64 59 0.0 0.0 0.00 0.00 0.00 94 1020.8
20260902003020 64 59 0.0 0.0 0.00 0.00 0.00 94 1020.8
20260902002513 64 59 0.0 0.0 0.00 0.00 0.00 94 1020.8
20260902002022 64 59 0.0 0.0 0.00 0.00 0.00 94 1020.8
20260902001512 64 59 0.0 0.0 0.00 0.00 0.00 93 1020.8
20260902001020 64 59 0.0 0.0 0.00 0.00 0.00 93 1020.8
20260902000527 64 59 0.0 0.0 0.00 0.00 0.00 93 1020.8
20260902000013 64 59 0.0 0.0 0.00 0.00 0.00 93 1020.9
20260901235526 64 59 0.0 0.0 0.00 0.00 0.00 93 1020.9
20260901235019 65 59 0.0 0.0 0.00 0.00 0.00 93 1021.0
20260901234511 65 59 0.0 0.0 0.00 0.00 0.00 93 1021.0
20260901234024 65 59 0.0 0.0 0.00 0.00 0.00 92 1021.0
20260901233514 65 59 0.0 0.0 0.00 0.00 0.00 92 1021.0
20260901233026 65 59 0.0 0.0 0.00 0.00 0.00 92 1021.0
20260901232517 65 59 0.0 0.0 0.00 0.00 0.00 92 1021.1
20260901232028 65 59 0.0 0.0 0.00 0.00 0.00 92 1021.0
20260901231520 65 59 0.0 0.0 0.00 0.00 0.00 92 1020.9
20260901231012 66 59 0.0 0.0 0.00 0.00 0.00 92 1020.9
20260901230524 66 59 0.0 0.0 0.00 0.00 0.00 92 1020.7
20260901230020 66 59 0.0 0.0 0.00 0.00 0.00 92 1020.8
20260901225512 66 59 0.0 0.0 0.00 0.00 0.00 92 1020.7
20260901225044 66 59 0.0 0.0 0.00 0.00 0.00 92 1020.8
20260901224513 66 59 0.0 0.0 0.00 0.00 0.00 92 1020.9
20260901224024 66 59 0.0 0.0 0.00 0.00 0.00 92 1020.9
20260901223518 66 59 0.0 0.0 0.00 0.00 0.00 92 1020.8
20260901223031 67 59 0.0 0.0 0.00 0.00 0.00 92 1020.8
20260901222540 67 59 0.0 0.0 0.00 0.00 0.00 92 1020.8
20260901222012 67 59 0.0 0.0 0.00 0.00 0.00 92 1020.9
20260901221523 67 59 0.0 0.0 0.00 0.00 0.00 92 1020.9
20260901221013 67 59 0.0 0.0 0.00 0.00 0.00 92 1021.0
20260901220524 67 59 0.0 2.0 0.00 0.00 0.00 92 1020.9
20260901220011 67 59 0.0 3.0 0.00 0.00 0.00 92 1020.9
20260901215521 67 59 0.0 2.0 0.00 0.00 0.00 92 1020.9
20260901215029 67 59 0.0 2.0 0.00 0.00 0.00 92 1020.9
20260901214518 67 59 0.0 3.0 0.00 0.00 0.00 92 1020.9
20260901214047 67 59 1.0 3.0 0.00 0.00 0.00 92 1020.8
20260901213514 67 59 0.0 2.0 0.00 0.00 0.00 92 1020.8
20260901213024 68 59 0.0 2.0 0.00 0.00 0.00 92 1020.7
20260901212514 68 59 0.0 0.0 0.00 0.00 0.00 92 1020.7
20260901212025 68 59 0.0 1.0 0.00 0.00 0.00 91 1020.7
20260901211516 68 59 0.0 3.0 0.00 0.00 0.00 91 1020.7
20260901211010 68 59 0.0 4.0 0.00 0.00 0.00 91 1020.7
20260901210521 68 59 1.0 4.0 0.00 0.00 0.00 91 1020.7
20260901210011 68 59 1.0 4.0 0.00 0.00 0.00 91 1020.7
20260901205523 68 59 0.0 3.0 0.00 0.00 0.00 91 1020.7
20260901205010 68 59 0.0 4.0 0.00 0.00 0.00 90 1020.7
20260901204540 68 59 0.0 5.0 0.00 0.00 0.00 90 1020.7
20260901204027 68 61 1.0 5.0 0.00 0.00 0.00 90 1020.6
20260901203517 68 60 3.0 5.0 0.00 0.00 0.00 90 1020.7
20260901203023 69 63 1.0 5.0 0.00 0.00 0.00 89 1020.5
20260901202513 69 63 2.0 5.0 0.00 0.00 0.00 89 1020.7
20260901202023 69 59 1.0 5.0 0.00 0.00 0.00 89 1020.7
20260901201512 69 57 1.0 10.0 0.00 0.00 0.00 89 1020.8
20260901201024 69 58 2.0 10.0 0.00 0.00 0.00 89 1020.5
20260901200515 69 77 1.0 6.0 0.00 0.00 0.00 89 1020.7
20260901200046 69 82 1.0 7.0 0.00 0.00 0.00 88 1020.7
20260901195514 69 51 3.0 7.0 0.00 0.00 0.00 88 1020.6
20260901195011 69 55 3.0 5.0 0.00 0.00 0.00 88 1020.5
20260901194524 69 55 0.0 5.0 0.00 0.00 0.00 87 1020.6
20260901194036 69 55 2.0 5.0 0.00 0.00 0.00 87 1020.5
20260901193528 70 55 1.0 5.0 0.00 0.00 0.00 86 1020.4
20260901193019 70 61 0.0 4.0 0.00 0.00 0.00 86 1020.3
20260901192549 70 61 0.0 4.0 0.00 0.00 0.00 85 1020.2
20260901192018 70 61 3.0 6.0 0.00 0.00 0.00 85 1020.2
20260901191530 70 61 1.0 6.0 0.00 0.00 0.00 84 1020.2
20260901191040 70 65 0.0 4.0 0.00 0.00 0.00 83 1020.2
20260901190510 70 65 2.0 5.0 0.00 0.00 0.00 82 1020.2
20260901190021 70 65 1.0 5.0 0.00 0.00 0.00 82 1020.1
20260901185514 71 91 2.0 7.0 0.00 0.00 0.00 82 1020.0
20260901185025 71 101 3.0 9.0 0.00 0.00 0.00 82 1020.0
20260901184516 71 89 4.0 9.0 0.00 0.00 0.00 82 1020.0
20260901184049 71 75 4.0 8.0 0.00 0.00 0.00 82 1020.0
20260901183519 71 90 2.0 8.0 0.00 0.00 0.00 81 1020.1
20260901183051 71 41 3.0 10.0 0.00 0.00 0.00 81 1020.1
20260901182541 72 76 3.0 10.0 0.00 0.00 0.00 80 1020.1
20260901182042 72 58 4.0 9.0 0.00 0.00 0.00 80 1020.2
20260901181511 72 46 3.0 10.0 0.00 0.00 0.00 80 1020.2
20260901181023 72 92 6.0 14.0 0.00 0.00 0.00 80 1020.2
20260901180533 72 85 6.0 14.0 0.00 0.00 0.00 81 1020.1
20260901180021 72 67 5.0 12.0 0.00 0.00 0.00 80 1020.1
20260901175510 72 57 4.0 15.0 0.00 0.00 0.00 81 1020.1
20260901175018 72 87 8.0 15.0 0.00 0.00 0.00 82 1020.0
20260901174525 72 49 6.0 12.0 0.00 0.00 0.00 82 1020.1
20260901174018 72 78 5.0 13.0 0.00 0.00 0.00 82 1020.1
20260901173548 72 27 8.0 13.0 0.00 0.00 0.00 81 1020.2
20260901173016 72 28 8.0 13.0 0.00 0.00 0.00 80 1020.1
20260901172528 72 79 6.0 14.0 0.00 0.00 0.00 80 1020.0
20260901172019 72 51 7.0 15.0 0.00 0.00 0.00 80 1020.0
20260901171511 72 32 5.0 15.0 0.00 0.00 0.00 80 1020.0
20260901171021 72 49 5.0 13.0 0.00 0.00 0.00 81 1019.9
20260901170530 72 55 6.0 13.0 0.00 0.00 0.00 81 1019.9
20260901170017 72 53 7.0 14.0 0.00 0.00 0.00 80 1019.7
20260901165525 72 76 7.0 13.0 0.00 0.00 0.00 80 1019.7
20260901165013 72 14 8.0 13.0 0.00 0.00 0.00 80 1019.7
20260901164521 73 53 10.0 14.0 0.00 0.00 0.00 79 1019.6
20260901164010 73 53 6.0 14.0 0.00 0.00 0.00 79 1019.6
20260901163519 73 40 4.0 17.0 0.00 0.00 0.00 80 1019.6
20260901163026 73 34 7.0 17.0 0.00 0.00 0.00 79 1019.6
20260901162535 73 44 8.0 14.0 0.00 0.00 0.00 80 1019.6
20260901162042 72 22 9.0 14.0 0.00 0.00 0.00 80 1019.4
20260901161530 72 12 9.0 20.0 0.00 0.00 0.00 80 1019.4
20260901161015 73 42 11.0 20.0 0.00 0.00 0.00 79 1019.4
20260901160524 73 89 9.0 15.0 0.00 0.00 0.00 80 1019.4
20260901160012 73 79 8.0 18.0 0.00 0.00 0.00 79 1019.4
20260901155521 73 63 9.0 19.0 0.00 0.00 0.00 79 1019.4
20260901155010 73 50 10.0 19.0 0.00 0.00 0.00 78 1019.2
20260901154518 73 28 10.0 17.0 0.00 0.00 0.00 78 1019.1
20260901154026 73 69 7.0 18.0 0.00 0.00 0.00 77 1019.0
20260901153515 73 50 10.0 19.0 0.00 0.00 0.00 76 1018.9
20260901153023 73 116 8.0 19.0 0.00 0.00 0.00 77 1018.8
20260901152512 74 20 9.0 15.0 0.00 0.00 0.00 77 1018.8
20260901152018 74 24 9.0 14.0 0.00 0.00 0.00 76 1018.8
20260901151526 73 90 6.0 18.0 0.00 0.00 0.00 78 1018.9
20260901151015 73 44 7.0 19.0 0.00 0.00 0.00 77 1018.9
20260901150543 73 24 12.0 19.0 0.00 0.00 0.00 78 1018.8
20260901150011 73 44 12.0 21.0 0.00 0.00 0.00 77 1018.9
20260901145519 73 54 11.0 21.0 0.00 0.00 0.00 77 1019.0
20260901145027 73 66 11.0 20.0 0.00 0.00 0.00 77 1019.0
20260901144515 73 57 11.0 21.0 0.00 0.00 0.00 77 1019.0
20260901144045 73 26 13.0 21.0 0.00 0.00 0.00 77 1019.2
20260901143511 73 24 9.0 18.0 0.00 0.00 0.00 79 1019.1
20260901143016 73 39 9.0 19.0 0.00 0.00 0.00 78 1019.1
20260901142526 73 57 7.0 18.0 0.00 0.00 0.00 78 1019.1
20260901142013 74 87 11.0 18.0 0.00 0.00 0.00 77 1019.1
20260901141522 73 96 7.0 18.0 0.00 0.00 0.00 77 1019.1
20260901141012 73 57 10.0 18.0 0.00 0.00 0.00 76 1019.1
20260901140520 74 355 8.0 17.0 0.00 0.00 0.00 77 1019.1
20260901140029 74 74 8.0 18.0 0.00 0.00 0.00 76 1019.1
20260901135523 73 73 9.0 18.0 0.00 0.00 0.00 76 1019.1
20260901135014 73 88 6.0 17.0 0.00 0.00 0.00 77 1019.1
20260901134523 73 43 8.0 16.0 0.00 0.00 0.00 77 1019.2
20260901134013 72 78 10.0 16.0 0.00 0.00 0.00 78 1019.3
20260901133525 72 48 12.0 19.0 0.00 0.00 0.00 78 1019.3
20260901133036 72 67 10.0 19.0 0.00 0.00 0.00 79 1019.4
20260901132527 73 21 11.0 18.0 0.00 0.00 0.00 77 1019.4
20260901132019 73 29 7.0 18.0 0.00 0.00 0.00 76 1019.3
20260901131512 74 51 8.0 17.0 0.00 0.00 0.00 75 1019.3
20260901131038 74 25 7.0 15.0 0.00 0.00 0.00 75 1019.4
20260901130512 74 42 8.0 20.0 0.00 0.00 0.00 74 1019.3
20260901130025 73 54 7.0 20.0 0.00 0.00 0.00 75 1019.3
20260901125515 73 66 8.0 17.0 0.00 0.00 0.00 75 1019.4
20260901125028 73 87 7.0 15.0 0.00 0.00 0.00 76 1019.6
20260901124536 73 36 10.0 15.0 0.00 0.00 0.00 78 1019.7
20260901124025 72 17 6.0 16.0 0.00 0.00 0.00 79 1019.9
20260901123515 72 24 11.0 17.0 0.00 0.00 0.00 78 1020.1
20260901123022 72 44 6.0 17.0 0.00 0.00 0.00 80 1020.1
20260901122512 71 26 7.0 16.0 0.00 0.00 0.00 83 1020.1
20260901122041 71 39 9.0 16.0 0.00 0.00 0.00 82 1020.2
20260901121510 71 55 7.0 15.0 0.00 0.00 0.00 82 1020.3
20260901121020 72 46 10.0 15.0 0.00 0.00 0.00 81 1020.4